Location: Flotzheim
(48.8375°N, 10.8136°E)
Time: 16:19:20
(UTC+00:00)

SL-14 R/B - Pass Details

Date: 23 January 2021
Orbit: 520 x 553 km, 82.4° (Epoch: 28 February)

Event Time Altitude Azimuth Distance (km) Brightness Sun altitude
Rises 16:33:23 0° 193° (SSW) 2,647 7.4 -5.7°
Reaches altitude 10° 16:35:30 10° 195° (SSW) 1,767 6.5 -6.1°
Maximum altitude 16:39:22 73° 280° (W) 560 3.5 -6.7°
Drops below altitude 10° 16:43:20 10° 6° (N) 1,802 5.7 -7.3°
Sets 16:45:31 0° 9° (N) 2,704 6.6 -7.6°
